Regional Weather Roundup
Issued by NWS

Home | Current Version | Previous Version | Graphics & Text | Print | Product List | Glossary On
Versions: 1 2 3 4 5 6 7 8 9 10 11 12 13 14 15 16 17 18 19 20 21 22 23 24 25 26 27 28 29 30 31 32 33 34 35 36 37 38 39 40 41 42 43 44 45 46 47 48
000
ASUS43 KDMX 040007
RWRIA

WEATHER ROUNDUP FOR IOWA
NATIONAL WEATHER SERVICE DES MOINES IA
700 PM CDT FRI JUL 03 2015

NOTE: "FAIR" INDICATES FEW OR NO CLOUDS BELOW 12,000 FEET WITH NO
SIGNIFICANT WEATHER AND/OR OBSTRUCTIONS TO VISIBILITY.

* - THESE STATIONS ARE NOT NWS STATIONS...THUS NOT UNDER NWS
QUALITY CONTROL.  THEY ALSO DO NOT REPORT WEATHER SUCH
AS PRECIPITATION OR FOG.

IAZ001>003-012>014-020>022-031>034-043>046-040100-
   NORTHWEST IOWA

CITY           SKY/WX    TMP DP  RH WIND       PRES   REMARKS
CARROLL *      SUNNY     75  54  46 N5        29.96F
CHEROKEE *     SUNNY     74  59  60 CALM      29.96F
DENISON *      SUNNY     75  55  50 CALM      29.95F
LE MARS *      SUNNY     75  61  60 SW5       29.96F
ORANGE CITY *  SUNNY     73  57  56 SW5       29.96F
SHELDON *      SUNNY     75  55  50 CALM      29.95F
SIOUX CITY     SUNNY     78  56  46 CALM      29.95F
6HR MIN TEMP:  73; 6HR MAX TEMP:  79;

SPENCER        SUNNY     77  56  48 W6        29.96F
6HR MIN TEMP:  75; 6HR MAX TEMP:  80;

STORM LAKE *   SUNNY     73  54  49 W5        29.98S
$$

IAZ055>058-069>071-079>083-090>094-040100-
   SOUTHWEST IOWA

CITY           SKY/WX    TMP DP  RH WIND       PRES   REMARKS
ATLANTIC *     SUNNY     75  52  43 NW3       29.96F
AUDUBON *      SUNNY     75  54  46 CALM      29.98S
CLARINDA *     SUNNY     77  59  53 CALM      29.97S
COUNCIL BLFS * SUNNY     75  55  50 N3        29.97S
CRESTON *      SUNNY     75  54  46 NE6       29.96S HAZE
HARLAN  *      SUNNY     75  57  53 CALM      30.00S
LAMONI         SUNNY     77  56  48 N5        29.95S
6HR MIN TEMP:  75; 6HR MAX TEMP:  79;

RED OAK *      SUNNY     77  50  38 CALM      29.96S
SHENANDOAH *   SUNNY     77  55  47 NW5       29.96S
$$

IAZ047>049-059>061-072>074-084-040100-
   CENTRAL IOWA

CITY           SKY/WX    TMP DP  RH WIND       PRES   REMARKS
AMES           SUNNY     76  56  49 N3        29.95S
6HR MIN TEMP:  74; 6HR MAX TEMP:  79;

ANKENY *       SUNNY     75  61  60 NE6       29.94F
CHARITON *     SUNNY     75  54  46 CALM      29.95S
DES MOINES     SUNNY     78  55  44 N5        29.94F
6HR MIN TEMP:  75; 6HR MAX TEMP:  80;

GRINNELL*      SUNNY     73  56  53 NW5       29.96S
KNOXVILLE *    SUNNY     75  54  46 CALM      29.94S
MARSHALLTOWN   SUNNY     76  57  51 CALM      29.94F
6HR MIN TEMP:  73; 6HR MAX TEMP:  78;

PELLA *        SUNNY     76  61  59 CALM      29.96S
PERRY *          N/A     77  54  44 NW3       29.96S
$$

IAZ004>006-015-016-023>025-035-036-040100-
   NORTH CENTRAL IOWA

CITY           SKY/WX    TMP DP  RH WIND       PRES   REMARKS
ALGONA *       SUNNY     75  54  46 SW5       29.95F
CLARION *      SUNNY     75  52  43 W5        29.95F
ESTHERVILLE    SUNNY     75  58  55 W8        29.95F
6HR MIN TEMP:  73; 6HR MAX TEMP:  77;

FORT DODGE *   SUNNY     75  55  50 W3        29.96F
MASON CITY     SUNNY     76  56  49 W8        29.96S
6HR MIN TEMP:  75; 6HR MAX TEMP:  78;

FOREST CITY *  SUNNY     73  54  49 W5        29.95F
IOWA FALLS *     N/A     75  57  53 CALM      29.96F
$$

IAZ007>011-017>019-026>030-037>042-050>054-066-040100-
   NORTHEAST IOWA

CITY           SKY/WX    TMP DP  RH WIND       PRES   REMARKS
CEDAR RAPIDS   SUNNY     74  58  57 NW6       29.94S
6HR MIN TEMP:  73; 6HR MAX TEMP:  77;

CHARLES CITY * SUNNY     73  64  73 CALM      29.95S
CLINTON *      SUNNY     73  57  56 N5        29.96S
DECORAH *        N/A    N/A N/A N/A MISG        N/A
DUBUQUE        SUNNY     75  54  47 CALM      29.95S
6HR MIN TEMP:  71; 6HR MAX TEMP:  76;

MONTICELLO *   SUNNY     73  57  56 N5        29.94S
OELWEIN *      SUNNY     73  59  60 W3        29.95F
WATERLOO       SUNNY     76  57  51 NW3       29.94S
6HR MIN TEMP:  73; 6HR MAX TEMP:  79;

$$

IAZ064-065-067-068-078-040100-
   EAST CENTRAL IOWA

CITY           SKY/WX    TMP DP  RH WIND       PRES   REMARKS
DAVENPORT      SUNNY     75  58  55 N5        29.93S
6HR MIN TEMP:  74; 6HR MAX TEMP:  78;

IOWA CITY      SUNNY     76  51  41 NW6       29.95R
6HR MIN TEMP:  74; 6HR MAX TEMP:  79;

MT. PLEASANT * SUNNY     78  53  40 N3        29.93S
MUSCATINE *    SUNNY     77  59  53 N5        29.93S
QUAD CITIES    PTSUNNY   75  60  59 E5        29.92S
6HR MIN TEMP:  75; 6HR MAX TEMP:  79;

$$

IAZ062-063-075>077-085>089-095>099-040100-
   SOUTHEAST IOWA

CITY           SKY/WX    TMP DP  RH WIND       PRES   REMARKS
BURLINGTON     SUNNY     76  61  59 N5        29.92S
6HR MIN TEMP:  76; 6HR MAX TEMP:  79;

FAIRFIELD *    SUNNY     75  57  53 N6        29.94S
FORT MADISON * SUNNY     75  63  64 CALM      29.93S
KEOKUK *       SUNNY     75  61  60 CALM      29.92R
OSKALOOSA *      N/A     74  57  54 CALM      29.95S
CENTERVILLE *  SUNNY     75  57  53 N3        29.96S
OTTUMWA        SUNNY     74  61  63 NW6       29.93S
6HR MIN TEMP:  73; 6HR MAX TEMP:  78;

WASHINGTON *   SUNNY     75  59  57 NW6       29.95S
$$

ABBREVIATIONS USED IN REMARKS
   TC - TEMPERATURES IN CELSIUS
  WCI - WIND CHILL INDEX
   HX - HEAT INDEX
  VSB - VISIBILITY
$$




USA.gov is the U.S. government's official web portal to all federal, state and local government web resources and services.